GFSSW_925_temp_000.txt.gz
Temp
21 22 22 22 22 23 23 24 24 24 25 25 24 24 26 26 25 24 31 33 33 32 30 31 31 33 34 37 37 38 39 38 38 38 36 37 36 35 36 33 31 32 33 29 27
21 21 22 23 23 23 23 24 24 24 25 24 24 24 25 25 22 30 32 32 32 32 33 34 36 36 38 38 38 39 40 38 39 39 38 37 37 36 35 33 30 30 30 27 27
21 21 22 23 23 23 24 23 24 23 23 23 24 24 25 25 29 35 33 32 32 32 34 35 36 38 38 39 39 39 39 38 38 38 38 37 36 36 36 35 32 29 29 28 28
20 21 21 22 23 23 24 24 22 21 21 22 22 23 24 20 33 33 31 32 32 31 33 36 37 38 39 39 39 38 38 38 37 37 38 37 37 34 34 33 32 30 30 29 29
19 21 21 21 23 24 23 24 21 19 19 20 22 23 22 29 34 30 31 31 31 31 35 37 38 39 38 39 39 38 37 37 37 38 38 37 35 33 32 32 31 30 29 30 30
19 20 22 21 23 24 24 24 22 21 21 22 22 22 23 31 31 29 29 29 32 33 36 37 38 39 39 39 39 38 37 37 38 38 37 36 35 35 31 31 31 30 30 30 30
18 19 21 22 22 23 24 24 24 24 23 22 21 18 27 34 30 29 29 32 34 35 37 37 38 38 40 38 39 37 36 36 37 37 37 37 34 32 31 32 31 31 31 31 30
18 19 21 22 22 23 24 23 24 23 23 22 22 19 33 30 29 29 31 32 33 34 36 35 36 39 39 38 38 38 38 36 37 36 36 36 33 32 33 33 32 31 31 30 30
18 19 20 22 22 23 23 21 22 22 22 21 19 24 34 29 31 32 33 34 34 34 35 34 37 39 38 38 38 38 37 37 36 37 36 37 34 33 34 34 33 32 32 31 31
18 19 20 22 23 23 22 20 19 19 17 16 20 27 32 35 33 33 32 34 36 36 36 37 38 38 39 39 37 37 38 38 37 37 36 37 35 34 34 34 33 33 33 32 32
17 19 20 22 22 23 20 18 26 26 23 32 34 33 35 34 33 34 33 35 37 37 36 37 37 37 38 39 39 39 38 38 38 38 37 37 35 34 35 34 34 34 33 33 33
17 18 20 22 23 23 22 30 30 28 29 33 31 32 32 35 35 35 35 36 36 36 37 36 36 38 39 38 38 38 38 38 37 36 37 35 35 35 34 35 34 34 33 33 33
17 17 20 22 24 21 25 27 26 26 30 33 32 33 34 34 36 35 36 37 36 36 36 37 38 38 37 37 37 38 38 38 37 35 37 35 34 33 34 34 34 34 34 34 33
16 16 19 21 21 22 28 26 26 26 31 34 33 35 35 36 35 37 37 37 37 36 37 38 37 37 37 38 38 38 38 38 37 35 35 36 36 34 34 33 33 34 33 34 33
16 16 18 16 17 25 27 26 26 29 32 36 36 35 37 36 37 35 37 37 36 37 36 37 37 37 37 38 38 36 37 37 36 36 36 34 35 37 35 34 34 34 34 34 33
16 17 16 16 15 23 24 26 27 31 31 34 35 35 35 37 37 36 35 37 38 37 37 38 39 39 39 38 38 36 35 35 36 37 35 37 36 37 37 35 36 35 35 34 34
16 19 15 13 27 23 23 30 30 31 35 34 35 36 36 36 36 36 35 35 36 35 36 37 37 38 38 36 36 37 37 35 34 35 35 35 35 36 38 35 36 36 35 34 33
17 20 18 20 20 21 26 31 29 34 34 35 36 36 36 37 37 36 36 36 37 38 38 37 35 37 38 38 37 37 38 36 33 35 36 33 34 36 36 36 37 36 36 35 33
18 19 19 20 19 20 29 30 32 34 34 34 35 35 36 36 37 36 36 37 37 38 37 37 37 38 39 38 39 37 36 38 36 36 35 37 36 36 36 35 34 34 35 35 33
12 19 25 22 20 24 30 29 32 32 33 34 34 36 35 36 35 36 36 38 38 38 39 38 36 38 37 37 36 37 39 36 37 33 33 35 35 36 36 36 35 34 34 34 33
14 25 24 21 23 28 30 32 32 33 33 33 34 35 36 36 36 36 37 38 38 38 39 39 37 36 36 36 37 36 36 37 37 36 34 34 36 37 36 36 36 35 34 34 33
19 26 22 22 29 30 31 32 28 33 33 33 33 34 35 37 36 37 37 38 38 38 36 38 37 36 36 37 37 39 38 37 35 34 35 34 35 37 37 37 36 36 35 34 33
21 25 24 24 29 30 30 30 31 32 33 33 34 34 35 36 35 37 37 38 36 37 37 38 36 35 36 36 35 36 37 38 38 37 34 34 35 36 36 35 35 36 35 33 33
20 26 27 27 27 28 30 30 31 30 32 31 32 34 34 35 35 35 36 35 35 37 27 34 37 36 36 36 37 35 36 37 37 36 35 35 35 36 36 35 35 34 34 33 32
21 23 20 27 27 27 27 29 30 30 31 31 32 33 33 34 35 35 36 35 34 27 34 36 34 36 37 38 38 37 36 36 36 36 35 36 35 36 35 34 34 35 34 32 31
19 20 22 23 23 25 22 27 28 29 29 31 31 31 32 33 34 35 35 36 36 34 35 34 34 35 36 36 36 36 37 36 36 36 35 35 34 36 35 34 34 34 34 32 31
15 16 18 17 24 25 25 25 26 26 28 28 27 29 32 30 27 29 30 31 32 34 34 34 34 33 34 35 35 34 35 36 36 35 35 33 34 35 34 33 34 33 33 32 31

GFSSW_925_temp_003.txt.gz
Temp
21 22 22 22 22 23 24 24 25 25 25 25 26 25 26 26 26 24 32 35 34 33 32 34 34 36 37 39 41 42 39 40 40 40 39 40 39 39 38 36 36 36 34 32 30
21 21 22 23 23 23 23 24 25 26 24 24 25 25 25 25 23 31 34 34 34 33 34 36 38 39 40 41 42 41 41 40 41 41 40 40 39 38 37 35 35 35 34 31 30
19 21 21 23 23 23 23 24 25 24 23 22 23 25 24 25 30 36 35 34 33 33 36 37 39 40 40 42 42 42 41 41 40 41 41 40 39 40 39 36 35 33 32 32 30
19 20 21 21 23 23 23 23 24 23 20 19 22 23 24 21 34 34 32 33 33 32 36 38 39 39 40 40 42 40 41 41 40 41 41 39 39 37 36 36 35 33 32 32 31
18 19 21 21 23 23 23 23 24 24 22 22 23 23 22 30 35 32 32 32 31 32 36 39 39 40 40 41 41 40 40 40 40 41 40 39 37 35 34 35 35 34 33 32 32
18 19 20 22 22 23 24 24 24 24 24 23 23 22 24 33 36 33 32 31 35 35 38 39 40 42 42 41 41 41 40 40 40 40 39 38 37 35 34 34 33 33 33 33 33
18 19 19 21 22 22 24 24 23 24 24 24 22 19 30 36 34 34 34 34 36 37 40 39 40 41 42 41 41 41 39 39 40 40 39 39 36 34 34 34 34 33 34 33 33
18 18 19 21 21 22 24 24 22 23 23 23 22 21 33 34 34 33 35 36 37 37 39 39 39 41 42 42 40 39 40 38 39 39 38 26 34 35 35 35 34 34 34 33 33
17 18 19 20 22 22 24 23 21 21 22 22 20 26 35 32 34 35 36 37 37 38 38 38 39 41 41 39 39 40 39 38 38 40 35 28 35 35 37 36 35 34 34 34 33
17 18 19 20 22 21 24 20 19 20 19 19 24 30 34 36 36 36 36 37 38 39 38 39 40 40 40 40 38 38 39 40 39 39 39 35 35 36 37 37 35 35 35 34 34
16 17 19 20 22 22 24 20 26 25 27 34 35 36 37 38 36 36 37 38 39 38 37 39 39 39 40 40 41 41 40 40 40 40 39 39 37 36 37 37 36 36 35 35 35
15 16 18 21 22 23 22 30 33 31 31 36 36 36 37 37 36 37 37 37 38 37 39 38 38 40 41 40 40 40 40 40 40 40 39 38 38 37 37 37 37 36 35 35 35
14 15 18 21 23 21 27 30 31 31 32 37 37 36 37 38 37 37 38 38 37 37 38 38 39 40 40 40 39 39 39 40 39 39 39 37 37 37 37 37 37 37 37 37 36
14 14 16 20 21 26 30 31 30 31 31 36 36 37 37 37 37 39 38 39 38 38 39 39 40 39 39 39 39 38 40 40 39 38 37 39 37 36 37 36 37 37 37 37 36
14 14 16 14 17 27 31 30 30 31 31 38 38 39 38 37 38 38 38 39 38 38 39 38 40 39 38 39 40 39 41 39 39 39 38 37 37 35 35 36 36 37 37 37 37
13 15 14 21 17 23 26 29 30 31 32 37 37 37 37 37 38 39 38 40 40 39 39 40 41 40 40 41 40 40 39 39 39 39 37 38 35 38 35 36 37 37 38 37 37
14 17 13 13 26 27 27 30 31 31 37 37 37 37 37 37 38 38 36 37 37 36 37 39 39 41 41 40 40 39 38 36 36 36 36 39 38 38 40 40 39 39 38 38 37
15 20 20 19 23 23 25 31 30 34 36 38 38 38 37 38 38 37 36 36 38 39 38 37 37 39 40 40 38 38 39 37 35 36 38 38 36 38 40 40 39 39 39 38 37
16 21 24 24 21 24 30 30 32 35 37 37 38 37 37 38 38 37 37 37 38 40 38 38 38 40 40 41 40 38 38 40 38 38 37 38 38 39 39 38 38 39 39 38 37
11 21 27 27 23 25 30 28 34 37 36 36 35 37 37 38 38 38 37 39 39 40 42 41 38 40 40 41 41 39 40 37 38 35 35 37 37 37 37 38 38 38 38 38 38
14 27 29 26 25 28 30 32 34 36 35 35 35 37 38 38 38 38 38 39 40 40 41 40 40 39 40 38 38 38 38 39 39 38 36 36 37 39 38 38 38 38 38 38 38
21 27 27 27 28 31 32 33 31 36 36 35 36 36 38 39 38 38 38 39 41 41 39 40 39 37 38 40 40 40 38 38 37 36 37 37 37 40 39 39 38 38 38 37 37
23 29 28 28 29 31 33 33 34 34 35 35 35 37 38 38 37 38 39 41 41 40 39 40 38 37 37 39 39 38 39 40 39 39 35 36 37 38 38 38 38 37 38 37 36
22 28 30 29 31 31 32 32 32 34 34 36 35 36 36 36 38 38 39 40 40 40 32 38 38 37 37 37 39 37 38 39 39 38 37 37 37 37 38 37 37 37 37 37 36
24 28 26 30 31 31 32 33 32 33 33 35 34 35 36 35 37 37 39 39 38 29 37 38 36 37 38 39 39 39 38 38 38 38 37 38 36 37 37 36 36 36 36 37 36
22 23 25 28 27 28 25 30 32 33 32 33 33 36 35 34 33 36 38 38 37 37 37 37 36 37 37 39 39 39 39 39 38 38 38 38 38 38 38 37 36 36 36 36 36
18 20 22 25 28 29 30 30 31 30 31 32 31 33 34 32 31 32 34 36 36 37 36 36 36 36 35 38 38 37 38 38 38 39 38 37 37 37 36 36 36 35 35 35 35

GFSSW_925_temp_006.txt.gz
Temp
21 21 22 23 23 23 24 24 25 25 26 26 26 27 26 25 27 27 31 35 34 34 34 35 37 37 38 39 40 36 36 38 38 39 37 39 38 39 39 37 36 36 33 33 32
20 21 21 22 23 23 23 25 25 25 25 26 25 25 25 24 23 30 32 33 34 34 33 37 39 40 40 40 42 41 39 39 40 41 33 28 35 38 37 36 36 35 34 32 32
19 19 20 21 23 23 23 24 25 25 24 23 22 23 24 23 28 34 35 34 34 34 35 38 39 41 40 42 42 42 40 41 40 40 34 31 34 29 26 35 35 33 33 32 32
18 19 20 20 22 23 22 23 25 25 24 24 22 22 23 19 33 33 35 35 34 34 35 37 39 39 40 41 42 41 42 41 41 38 38 39 35 29 27 27 35 34 33 33 32
18 19 19 20 21 22 23 23 24 25 24 24 23 22 21 28 33 34 34 33 33 33 36 38 39 40 40 42 42 41 41 41 41 40 40 38 36 32 31 33 35 34 33 33 33
18 19 19 19 21 21 23 22 24 25 24 24 22 22 22 30 36 34 33 32 34 34 37 39 40 41 42 42 41 41 41 41 41 40 39 38 37 35 35 35 34 34 33 33 33
17 18 19 19 21 21 22 23 23 24 24 24 22 19 27 33 36 36 35 34 35 36 38 39 41 41 42 41 42 41 40 40 40 39 38 39 36 34 35 35 34 34 34 34 33
16 18 19 19 21 21 22 24 23 23 23 23 22 20 29 35 36 36 36 36 36 38 39 40 41 41 42 43 41 40 40 38 40 37 36 37 34 35 35 35 34 34 34 34 33
15 17 18 20 20 22 22 24 22 22 22 22 19 24 32 35 35 36 36 37 37 38 39 40 41 40 41 40 39 40 38 38 38 37 37 36 35 36 37 36 35 35 35 34 33
14 16 17 19 20 22 23 25 21 19 21 19 22 28 32 36 36 37 37 38 39 39 39 39 39 38 40 40 37 38 38 39 38 38 37 37 36 36 37 37 36 35 35 34 34
13 15 17 19 21 21 22 23 26 25 26 32 34 35 38 37 38 37 38 39 39 39 37 38 37 37 40 40 41 41 40 38 39 38 37 36 36 37 38 37 36 36 35 35 35
13 14 16 19 21 22 18 27 32 33 32 35 35 37 38 39 37 38 38 38 37 37 38 38 37 40 41 41 41 41 40 40 40 41 40 36 35 37 38 37 37 36 35 35 35
12 13 15 19 22 23 24 29 32 32 32 34 36 37 38 39 37 37 39 38 37 37 37 37 39 41 41 41 40 40 40 40 40 40 40 39 35 31 36 38 38 37 36 36 35
12 12 14 18 22 22 28 32 32 33 31 34 36 37 38 38 37 39 39 39 38 37 38 38 40 40 40 40 40 39 41 40 41 39 37 39 36 32 35 37 37 37 37 37 36
12 12 12 13 13 22 30 31 32 32 29 39 38 39 39 37 38 39 39 39 38 38 39 38 40 40 39 40 41 39 41 40 40 39 39 39 37 35 37 36 37 37 38 37 37
13 13 11 17 14 22 26 29 31 30 31 38 39 38 37 37 38 39 38 39 40 39 39 40 41 41 40 41 41 41 40 40 40 39 37 38 38 34 33 36 36 37 38 38 38
12 16 11 11 22 28 26 29 29 29 36 37 37 38 37 37 37 38 37 36 37 36 37 39 40 41 41 40 41 40 39 36 36 36 36 40 38 37 38 39 37 30 28 38 38
13 18 21 18 22 23 25 28 28 32 34 39 39 38 37 38 37 38 37 36 37 38 38 37 37 40 41 40 40 39 39 37 35 36 38 40 37 38 40 40 38 37 36 39 38
13 18 23 24 21 24 28 27 30 32 36 37 39 37 37 38 38 38 37 37 38 39 38 38 38 41 41 41 41 39 38 40 39 39 38 38 39 40 40 40 40 40 40 38 38
10 17 24 28 26 26 28 26 32 35 36 38 36 38 37 38 37 38 37 38 38 39 40 40 38 40 41 41 41 40 40 37 38 36 35 38 38 38 37 38 39 39 39 39 38
14 24 31 29 27 28 28 29 32 35 36 36 36 36 38 38 38 38 38 38 39 39 40 41 40 39 40 39 39 39 39 39 39 38 37 36 35 38 38 38 38 39 39 39 39
19 25 30 29 28 29 30 31 30 35 36 37 37 36 36 38 39 39 38 38 40 40 39 41 40 38 39 41 41 41 39 39 37 36 37 37 37 40 39 39 39 38 38 38 38
19 26 30 30 28 29 31 32 33 35 35 36 36 37 37 37 37 39 39 41 41 40 40 40 39 37 38 40 40 39 40 40 39 39 36 36 36 39 39 39 39 38 38 37 36
17 26 30 31 30 30 32 32 33 35 36 36 36 37 37 37 38 38 39 41 41 41 35 39 39 37 37 38 39 38 39 39 39 37 37 37 36 37 38 38 37 37 37 37 36
18 25 27 28 30 30 31 32 33 33 35 35 34 35 36 35 37 37 39 40 41 35 39 40 37 38 39 39 39 39 39 39 38 38 37 37 35 34 34 37 36 36 36 37 37
19 20 23 24 26 29 28 31 32 34 34 34 34 35 36 35 35 34 34 37 39 39 39 39 36 37 37 39 39 38 39 39 39 39 39 39 38 35 37 37 37 36 36 36 36
18 17 19 23 27 29 31 31 32 33 35 35 34 33 34 31 33 34 35 36 37 38 38 37 37 35 35 37 37 37 38 39 40 39 39 36 38 37 36 36 36 36 35 35 35

GFSSW_925_temp_009.txt.gz
Temp
20 20 21 22 23 23 24 24 25 25 26 26 25 25 25 26 27 26 25 32 33 34 33 34 34 35 35 35 33 34 27 29 27 29 32 34 35 35 34 33 32 33 31 30 29
19 20 20 21 22 23 22 24 24 25 26 25 25 25 23 24 24 25 31 32 33 34 33 34 35 36 34 35 36 31 30 34 32 33 31 32 32 29 33 33 31 31 32 31 30
19 19 20 20 22 22 22 23 24 24 25 25 24 24 23 23 22 29 33 33 33 33 34 34 35 36 35 36 36 34 34 36 36 35 32 31 31 30 30 32 31 30 30 31 29
19 19 20 20 20 22 22 22 23 23 25 24 24 24 23 22 28 34 34 34 34 33 33 34 35 34 34 35 40 38 38 37 35 34 32 30 29 32 30 30 32 31 31 31 30
18 19 19 20 20 21 22 22 23 23 24 24 24 23 22 23 27 34 33 35 33 33 33 34 34 34 34 36 40 38 38 37 37 35 31 31 29 29 31 31 33 32 31 30 29
17 18 19 20 20 21 22 22 23 23 23 23 23 22 20 24 33 34 34 33 33 33 34 34 35 36 36 37 38 39 38 38 37 35 35 33 30 30 31 32 32 31 30 30 30
16 17 18 20 20 21 22 23 23 23 23 22 22 19 22 26 34 34 34 34 34 34 33 36 37 36 36 36 39 39 37 38 37 36 34 34 32 32 32 33 32 31 31 31 30
15 16 18 19 21 21 22 23 23 24 22 22 21 19 21 32 34 34 34 34 34 35 35 37 38 36 36 36 39 38 36 33 34 35 35 33 30 32 32 32 31 32 32 31 29
14 15 17 19 20 21 22 23 24 24 21 21 19 20 25 34 33 35 36 35 35 35 36 37 37 35 36 35 35 35 33 33 34 35 35 33 31 33 33 32 31 32 32 31 30
13 15 16 18 20 21 22 24 23 21 20 17 20 23 25 32 35 35 36 37 34 34 35 35 34 33 32 32 31 33 35 33 34 34 35 33 31 33 33 32 32 32 31 31 30
12 14 16 18 20 20 21 22 21 21 23 27 28 29 32 35 36 36 36 36 34 34 32 34 32 31 32 34 35 36 36 34 36 36 34 33 33 33 33 33 32 31 30 30 30
11 14 15 18 21 22 18 18 27 30 28 32 33 32 34 34 35 36 37 34 33 32 33 33 31 34 36 36 37 37 36 33 35 36 33 33 33 34 30 31 33 32 31 31 29
10 12 14 17 22 22 19 23 29 29 26 30 32 33 34 35 35 34 35 35 33 32 33 32 34 37 36 37 37 36 36 35 35 36 36 33 31 27 30 31 33 33 32 32 30
10 11 13 16 21 19 21 27 28 30 26 29 31 33 34 35 35 37 37 35 34 33 34 34 36 37 36 37 37 34 38 39 38 34 30 33 27 27 28 30 33 33 32 32 30
11 11 12 13 12 15 25 26 26 29 24 34 33 37 35 33 35 35 38 35 34 35 34 34 35 36 36 37 38 36 38 38 37 35 34 33 30 29 28 28 32 33 33 33 31
12 12 9 15 12 22 23 24 26 25 26 34 35 35 33 34 35 36 36 35 36 35 35 35 37 37 37 38 38 39 38 36 35 32 29 32 31 27 29 31 34 34 34 34 32
12 15 10 8 15 24 24 24 24 25 32 33 35 35 34 34 35 35 34 33 32 31 32 35 36 37 38 36 37 38 34 30 29 30 29 32 32 29 33 35 34 31 31 31 33
10 16 19 19 22 21 19 23 23 29 29 33 33 36 34 35 34 35 34 33 34 33 31 31 32 36 38 35 34 34 31 28 30 30 32 34 33 32 35 35 34 33 33 34 31
11 14 17 21 22 19 21 22 25 28 31 33 33 34 34 36 35 34 33 33 34 34 32 32 33 37 38 39 36 34 32 33 32 34 31 33 35 35 34 33 34 33 32 33 33
7 12 18 23 23 21 21 22 27 30 31 32 31 32 32 35 35 33 34 35 35 36 35 33 31 36 38 38 37 34 35 33 28 31 30 32 33 31 32 32 32 31 30 31 30
10 18 25 26 23 22 22 24 27 30 30 29 29 31 33 34 35 34 34 35 36 36 36 35 32 35 36 35 34 34 33 33 30 29 29 30 31 33 32 32 32 33 32 31 31
14 19 28 27 23 24 23 26 26 30 31 31 32 32 33 34 33 35 34 36 37 37 35 35 32 33 35 36 37 35 33 31 28 31 30 28 30 36 33 33 32 33 32 33 31
11 18 24 28 24 25 26 27 29 30 31 31 32 34 35 33 31 33 35 38 38 37 35 35 34 31 33 36 37 36 35 33 32 30 30 29 31 33 33 33 32 31 32 31 33
13 19 23 24 27 26 26 27 29 32 31 32 32 33 33 32 33 32 34 37 38 38 34 33 32 31 31 33 35 34 36 35 32 29 30 30 32 30 30 31 33 32 32 31 30
14 19 21 20 21 20 23 26 28 29 32 33 32 32 31 30 31 32 34 33 37 36 35 34 30 32 33 36 37 37 36 36 33 31 30 33 30 29 31 31 32 32 35 35 34
16 16 17 17 19 23 24 26 28 30 30 29 29 33 32 30 29 29 30 31 32 34 36 35 30 33 35 36 37 36 37 36 36 35 34 33 31 32 32 30 30 32 32 32 32
14 15 15 17 19 20 24 25 29 30 27 28 27 31 32 29 30 30 30 31 31 32 32 31 30 29 31 35 34 32 35 35 35 36 34 32 32 29 29 30 29 30 32 33 33

GFSSW_925_temp_012.txt.gz
Temp
20 20 20 20 21 22 23 23 24 24 24 24 24 25 25 25 25 25 23 31 33 33 33 33 33 33 33 33 31 30 26 27 30 30 31 32 31 32 31 29 29 30 27 26 26
20 20 20 20 20 21 22 22 23 24 24 24 24 24 24 24 22 21 32 33 32 32 32 32 33 33 31 33 31 30 27 30 31 31 30 32 32 31 30 29 29 29 28 27 26
19 19 20 20 20 20 21 22 22 23 24 24 24 24 23 23 21 27 33 33 32 32 32 33 33 33 31 31 32 31 32 32 32 32 31 30 30 30 30 29 29 27 27 27 26
17 18 19 20 20 21 21 22 22 23 23 24 23 23 23 22 27 33 33 33 31 32 32 33 32 32 32 32 34 32 31 34 33 32 30 31 29 29 29 30 30 28 27 27 26
16 17 18 19 20 21 21 22 22 22 23 24 23 23 21 22 24 34 33 33 32 31 31 31 32 32 32 34 35 32 32 34 33 31 30 29 29 29 30 30 31 29 28 26 26
15 16 18 19 20 21 21 22 22 23 23 24 22 22 19 23 32 32 33 33 33 31 31 31 32 33 33 33 35 35 34 33 32 30 30 29 29 30 30 30 30 30 28 28 27
14 15 17 18 19 20 21 22 23 23 24 23 21 19 19 25 32 32 32 33 34 33 31 33 33 33 33 33 35 35 33 33 31 31 31 31 30 30 30 30 30 29 29 28 28
14 14 16 17 19 20 21 22 23 25 24 21 20 18 20 30 30 31 32 32 32 33 33 34 34 33 33 33 35 33 32 29 31 32 31 30 28 30 30 30 29 29 30 29 28
14 15 15 17 18 20 21 23 24 23 20 20 18 19 22 30 29 34 32 32 32 33 33 34 34 32 33 33 30 30 30 31 31 32 31 29 28 30 30 30 29 29 29 29 28
12 15 16 17 18 18 21 24 22 19 19 18 19 21 24 30 32 35 34 33 32 32 33 33 31 30 27 28 28 31 30 32 31 32 32 30 29 30 30 30 30 29 29 29 28
12 12 16 17 18 18 19 22 20 21 20 25 26 27 29 31 33 34 35 33 32 31 30 31 29 29 30 30 31 33 32 32 34 33 31 30 29 30 30 30 30 29 29 29 28
11 12 14 17 19 19 17 14 23 23 21 26 26 27 30 31 30 31 35 31 30 29 30 30 28 30 32 33 33 33 33 33 33 34 31 30 30 31 31 30 30 30 29 29 28
10 11 12 16 20 17 16 20 24 22 20 25 27 29 30 29 29 31 30 30 31 29 29 28 30 33 34 33 33 33 32 34 32 33 32 31 29 28 30 31 30 31 30 29 27
9 10 11 15 19 14 17 23 24 22 21 26 27 28 30 30 29 33 33 31 31 30 30 29 32 33 33 32 33 30 34 36 33 33 29 31 28 27 30 30 30 30 30 29 28
9 11 10 11 11 10 23 23 24 23 22 29 29 33 29 29 31 32 34 32 31 31 30 30 32 32 32 34 34 33 34 34 34 32 30 30 27 31 27 29 29 29 30 30 28
10 12 9 12 9 20 20 22 22 22 23 28 32 30 31 30 32 33 33 33 33 32 31 31 33 32 33 35 34 35 36 30 29 27 27 29 30 27 26 30 30 29 31 30 29
10 15 11 8 12 20 20 19 21 21 27 30 30 31 30 30 31 32 32 31 31 28 28 32 33 34 35 33 33 35 29 28 29 27 27 26 29 31 28 31 31 30 31 31 30
12 16 18 17 19 18 16 19 21 25 26 29 29 30 30 31 30 32 30 30 30 30 28 27 30 33 34 33 32 30 29 26 29 28 29 29 30 32 30 32 31 32 32 32 30
12 15 12 19 18 17 16 18 20 23 27 29 28 29 29 32 32 30 28 31 32 28 29 26 29 33 34 35 33 33 29 29 28 29 28 29 31 31 32 31 32 30 32 31 30
7 9 12 18 18 16 17 20 21 25 27 28 26 28 27 28 29 29 30 31 32 30 29 29 29 31 34 34 33 33 31 30 25 29 30 28 30 29 30 30 31 31 31 30 31
9 10 19 19 18 15 17 18 23 26 27 27 27 27 27 28 29 29 32 32 33 33 29 29 28 31 34 31 32 31 31 29 28 25 27 27 28 28 29 30 30 31 31 29 29
6 11 20 19 17 15 17 22 24 26 26 26 28 27 28 29 28 30 31 32 34 34 31 28 26 30 31 32 34 31 30 28 27 29 26 26 27 31 30 30 31 30 30 27 27
6 8 19 19 17 17 20 23 25 25 25 26 27 29 30 29 28 30 31 34 33 34 33 30 26 29 29 30 32 32 31 28 25 24 27 27 28 29 30 29 30 29 29 27 26
6 10 14 15 16 20 18 21 23 27 26 27 28 29 29 28 28 28 30 33 33 35 32 31 25 28 30 29 31 33 32 30 28 26 26 27 30 30 29 29 28 28 28 26 27
7 11 14 13 15 15 16 20 23 24 26 26 26 28 26 27 28 29 28 29 31 33 33 31 28 27 28 33 32 34 35 31 30 29 31 30 29 27 28 29 29 28 28 28 27
9 11 11 11 12 16 17 21 22 24 25 26 26 27 26 26 28 27 28 27 29 28 31 26 28 28 31 33 33 34 34 34 33 31 32 30 29 27 30 29 28 30 29 29 29
9 10 9 10 12 15 17 18 20 22 23 25 24 25 26 26 27 26 26 26 27 28 28 27 28 26 30 31 32 32 33 34 34 32 33 29 30 27 28 29 27 28 28 28 29

GFSSW_925_temp_015.txt.gz
Temp
19 19 19 20 20 21 21 22 22 22 22 23 25 24 24 25 25 24 22 31 33 33 32 33 33 32 32 31 31 29 26 27 28 28 28 29 28 29 29 27 28 28 25 25 24
18 19 19 19 20 21 21 22 22 22 22 23 24 24 23 23 21 20 32 32 32 32 31 31 32 32 30 30 30 29 27 30 30 30 29 29 29 28 28 27 27 26 26 25 24
17 18 18 19 19 20 21 21 22 22 22 23 23 23 23 21 20 25 32 32 30 32 31 32 32 33 32 31 30 29 29 31 31 30 31 30 29 29 27 26 26 25 25 25 25
15 17 18 18 19 19 20 21 21 22 22 23 23 23 23 21 27 32 32 32 32 30 31 31 31 31 31 31 31 30 31 32 31 30 29 29 29 29 28 27 28 26 26 25 25
14 15 17 18 19 20 20 20 21 22 22 23 23 22 21 22 23 32 32 31 31 29 30 30 30 30 31 31 32 30 31 32 31 29 29 29 29 29 28 29 28 27 26 25 25
12 14 16 17 18 19 20 20 21 22 23 24 22 20 19 23 30 30 31 30 30 29 29 30 30 30 32 31 33 31 31 31 29 28 29 28 29 29 29 28 27 26 26 26 25
13 12 14 17 18 19 20 21 22 23 24 23 20 18 19 24 31 30 29 30 30 30 28 31 31 32 31 31 33 32 30 30 30 29 28 29 28 27 29 27 27 26 26 26 25
13 14 13 15 17 18 20 22 23 24 23 21 18 16 20 29 29 29 30 30 31 30 31 33 32 31 32 32 33 30 29 28 30 29 30 29 27 28 29 28 27 27 26 26 26
12 14 15 15 16 18 20 23 23 20 19 18 17 18 22 28 27 32 31 31 31 30 31 32 32 30 31 30 28 30 29 28 29 30 30 28 27 28 29 29 28 28 27 27 26
10 12 14 15 16 17 21 23 20 18 18 17 17 20 24 29 30 32 33 31 30 29 31 31 28 28 25 26 27 29 28 29 29 31 30 28 27 28 28 28 28 28 28 28 27
10 12 14 15 17 18 21 22 19 20 18 22 24 25 27 29 30 31 32 30 30 29 28 29 28 27 28 29 30 29 29 29 30 31 29 28 27 28 28 28 27 27 27 28 27
10 11 12 16 17 18 18 17 20 20 18 22 23 25 27 29 28 29 31 30 28 28 28 28 27 29 30 30 30 31 30 30 32 30 29 27 27 29 28 28 28 28 28 28 27
9 11 12 15 17 16 14 18 20 20 17 21 24 26 27 26 26 28 29 28 29 27 27 26 29 30 31 31 31 30 30 30 30 30 29 28 27 27 28 29 29 29 29 28 27
9 11 11 12 15 14 14 20 20 19 20 23 25 26 27 27 27 30 30 29 29 28 27 28 30 31 31 31 31 30 31 32 31 30 28 29 25 26 27 28 29 29 29 28 28
9 12 9 7 8 9 21 21 21 20 21 27 27 30 27 28 29 30 31 30 29 30 28 28 30 30 31 31 32 31 31 31 31 30 28 28 26 26 27 26 28 29 29 29 28
9 12 9 10 8 18 19 20 19 21 22 26 30 29 28 28 29 31 30 31 30 30 30 29 31 31 31 32 32 33 33 27 25 25 26 28 28 26 26 29 29 30 29 29 28
10 14 10 6 11 18 19 18 21 20 25 27 28 28 28 28 29 31 29 29 28 27 27 30 31 32 33 32 31 31 28 26 27 26 25 26 27 29 28 30 31 30 28 29 29
10 15 16 14 17 15 16 18 19 23 25 26 27 28 29 30 29 29 28 28 28 27 25 26 28 30 32 30 30 28 27 24 27 25 27 25 27 30 31 31 32 31 30 29 28
11 13 11 16 14 14 15 17 19 22 25 27 26 27 26 28 29 29 27 29 30 26 27 24 26 31 31 32 30 30 27 28 26 25 25 25 28 30 30 29 31 31 30 29 29
7 7 10 15 13 13 15 18 20 23 26 26 25 26 26 26 27 26 27 28 30 28 28 27 27 28 32 31 31 31 28 29 23 27 28 27 30 28 32 29 28 30 29 29 29
7 8 15 15 15 13 15 16 21 24 25 26 26 25 26 26 26 26 27 28 29 30 29 25 26 29 31 29 31 29 28 26 25 24 26 26 27 26 31 28 27 28 30 30 30
5 11 14 14 15 12 15 17 22 24 25 25 24 24 24 26 25 26 26 27 30 31 27 26 25 28 29 29 31 29 29 28 29 26 23 25 26 29 28 27 29 29 29 29 30
7 5 15 15 15 15 16 20 23 24 24 24 24 25 27 27 25 26 27 30 30 30 30 25 23 25 26 28 30 30 28 26 24 22 24 26 27 28 28 27 27 28 26 26 27
7 9 11 12 12 16 15 18 21 24 24 24 24 25 25 24 25 25 27 29 31 30 30 28 22 29 29 29 28 31 30 26 28 25 25 25 29 30 28 27 26 26 25 26 27
7 10 11 12 13 13 14 16 20 21 23 23 23 24 26 23 24 26 27 28 28 29 29 29 26 24 30 31 29 31 31 28 28 29 30 30 27 28 27 27 27 28 26 25 26
8 8 9 9 10 12 14 17 18 20 20 22 22 25 24 23 26 27 27 25 26 26 27 25 26 25 27 28 30 31 31 31 30 28 30 28 28 27 29 26 27 28 27 26 24
8 8 8 10 11 12 14 15 17 18 19 21 22 22 25 25 26 26 25 25 23 26 25 24 27 24 29 29 29 29 30 31 30 30 30 29 28 25 28 27 27 26 26 27 26

GFSSW_925_temp_021.txt.gz
Temp
16 17 17 18 19 20 20 20 21 22 22 24 24 24 25 25 26 24 25 30 33 30 29 25 25 26 27 29 30 30 32 32 31 31 31 30 29 29 29 28 28 28 27 27 23
14 15 16 18 19 20 20 20 19 21 22 24 24 24 24 24 22 22 30 29 31 31 29 29 30 29 30 32 32 32 33 33 33 33 32 30 30 29 28 28 27 26 26 24 23
13 15 15 16 18 19 20 20 20 19 21 23 24 24 24 23 23 29 29 29 29 29 30 31 32 33 32 33 33 32 34 33 32 33 33 31 30 30 29 28 28 26 25 25 24
11 14 15 16 17 17 18 20 21 21 21 23 24 24 23 22 29 30 29 30 29 29 29 31 32 33 34 33 34 33 33 34 34 32 32 31 31 30 29 30 30 28 26 25 25
9 12 14 15 16 17 17 19 20 22 22 22 24 22 20 24 27 30 29 29 28 27 29 31 32 33 34 34 34 33 33 33 33 32 33 32 31 30 30 29 29 27 26 26 26
9 12 14 15 15 17 18 19 21 22 23 23 22 19 19 25 28 28 29 28 27 26 29 31 33 33 34 34 35 33 33 31 31 31 31 31 30 30 30 28 27 27 26 26 26
8 10 12 13 15 17 19 20 21 22 22 21 19 17 20 28 29 28 28 28 28 27 30 31 32 33 34 34 33 32 31 31 31 31 31 32 29 30 30 28 27 27 27 27 26
10 12 12 14 14 16 20 21 22 22 20 19 17 15 25 27 27 28 28 27 27 28 30 30 31 33 34 33 33 33 33 32 31 31 30 32 32 31 29 29 28 28 27 27 27
9 11 13 14 15 17 20 21 20 18 18 17 15 17 26 27 27 28 27 29 26 28 29 30 32 32 32 33 32 31 33 33 30 32 30 31 32 32 30 29 29 28 28 27 27
9 10 11 13 15 18 21 19 17 17 15 14 16 21 26 29 28 28 28 28 29 29 30 31 31 32 32 34 33 33 32 32 32 31 31 31 31 30 29 30 29 29 28 28 28
10 11 11 13 15 17 19 18 21 21 18 25 26 26 27 28 28 29 28 29 30 30 30 30 31 31 33 34 36 35 34 34 32 32 31 31 31 30 29 29 30 29 28 29 28
10 10 11 14 15 16 16 19 17 16 20 22 22 24 26 26 28 29 29 30 30 30 28 29 30 32 33 33 33 33 34 34 32 31 32 31 31 31 30 29 30 29 29 29 29
9 10 9 15 15 14 12 16 15 16 20 24 23 24 25 25 27 30 30 30 30 29 30 30 32 31 31 32 32 33 34 33 34 32 32 32 32 31 30 30 30 30 30 30 29
9 10 9 11 14 13 16 16 16 17 23 26 26 27 25 26 27 29 31 31 29 30 29 30 32 31 31 32 33 33 33 34 34 32 32 32 32 32 32 30 30 30 30 30 30
9 10 8 6 8 11 16 17 16 17 25 28 28 27 27 28 29 28 30 30 30 29 30 30 30 30 32 32 32 34 33 33 34 33 33 30 31 35 30 30 31 31 31 31 31
9 10 9 7 7 15 15 16 17 24 24 27 28 28 27 28 29 28 29 31 31 30 29 31 30 32 32 34 33 32 32 31 31 33 30 33 32 34 32 31 33 32 32 32 32
9 11 10 6 12 14 16 18 23 23 26 27 28 28 29 28 28 29 29 29 30 29 29 30 31 32 33 33 33 33 33 31 30 29 31 33 31 34 36 35 35 35 33 32 32
10 12 12 10 12 10 13 21 21 24 26 27 28 28 28 29 29 29 29 29 31 31 30 29 29 31 33 34 32 32 34 33 30 30 32 29 30 33 35 36 34 34 35 33 32
10 10 9 12 11 9 17 21 24 24 26 27 28 28 29 28 28 29 29 30 30 31 30 29 29 30 32 33 34 32 31 36 33 29 32 33 31 32 34 34 35 35 34 33 33
6 6 9 10 10 11 18 21 23 24 26 26 27 27 27 28 28 29 29 30 30 31 33 29 29 32 32 33 32 33 34 32 32 31 31 32 31 35 34 35 35 35 34 34 33
6 11 11 10 10 15 19 20 22 23 24 26 27 27 27 27 28 28 29 29 30 30 32 31 31 30 31 32 33 31 31 31 34 33 33 32 33 34 36 36 37 37 36 35 34
7 14 10 9 15 15 18 18 20 23 25 25 25 27 27 27 27 27 28 29 29 29 29 30 31 30 31 33 32 34 33 33 33 30 31 33 34 35 35 37 36 35 36 34 33
8 9 10 10 16 17 17 18 20 23 24 24 25 26 26 26 25 26 28 29 30 30 30 28 29 29 30 31 31 31 32 34 34 34 32 32 34 33 32 32 33 33 35 32 30
8 10 13 13 13 15 15 17 19 22 22 24 25 25 25 25 25 26 26 28 29 29 26 29 29 30 30 31 32 31 31 31 32 32 33 32 34 35 35 34 34 32 32 32 29
8 9 9 12 14 13 13 15 17 19 21 22 23 24 25 24 25 25 26 27 28 28 28 28 27 28 31 32 32 32 32 32 31 32 33 34 32 35 36 36 35 35 33 30 29
8 9 9 9 11 12 13 16 17 18 18 21 22 24 24 23 25 26 26 26 27 27 28 26 28 27 29 31 32 32 33 33 32 33 32 34 33 35 36 33 32 33 33 31 30
7 7 8 10 11 12 15 16 16 15 18 19 19 18 20 22 23 23 24 25 27 27 27 26 28 27 29 31 30 30 32 32 33 33 32 32 33 35 32 31 32 33 32 32 31

GFSSW_925_temp_024.txt.gz
Temp
13 15 16 17 19 19 19 20 20 21 22 23 24 24 25 25 26 23 30 31 30 29 26 29 29 30 31 33 34 36 37 36 36 36 34 34 33 33 34 31 32 32 32 30 27
12 14 16 17 18 18 18 18 19 20 22 23 23 24 24 25 22 29 31 29 29 28 28 30 32 32 33 34 36 36 37 37 38 38 36 35 35 33 33 32 31 31 32 29 27
10 13 16 16 17 17 18 19 19 20 22 23 23 24 24 23 28 34 29 30 28 28 32 32 34 34 35 37 37 37 37 38 37 38 37 35 35 34 33 32 33 31 30 29 28
12 15 15 15 16 16 17 18 19 21 22 22 23 23 22 20 31 32 29 29 30 27 31 33 36 34 36 36 38 36 37 38 38 37 37 36 36 34 33 34 34 33 31 30 30
11 14 15 15 16 16 17 18 20 21 22 22 21 22 19 28 31 31 29 29 27 29 32 34 35 36 36 38 38 37 37 38 38 37 37 37 35 35 34 33 34 32 31 30 31
8 10 13 14 15 17 18 19 20 21 22 22 20 19 21 28 32 29 28 28 30 30 33 35 36 38 38 38 38 38 38 37 37 37 37 35 35 34 34 33 33 32 31 31 31
8 11 12 13 14 16 18 20 20 21 23 22 18 17 24 30 30 29 29 30 30 31 34 34 36 37 38 37 38 38 36 36 36 36 36 36 34 34 34 33 32 32 31 32 31
9 11 12 13 15 16 18 20 20 20 20 20 18 18 28 29 29 28 30 30 30 30 33 34 35 36 37 39 37 37 38 37 36 36 35 36 35 35 34 33 32 32 31 31 31
9 10 12 13 16 18 19 19 19 18 18 18 18 22 30 28 29 31 31 32 31 31 32 34 35 36 37 37 37 37 37 37 35 36 34 35 36 36 35 34 33 32 32 32 31
9 11 11 12 15 18 20 19 16 16 16 16 19 24 29 33 32 31 30 31 32 33 33 33 35 35 37 37 36 37 37 38 37 35 35 35 36 35 35 35 34 33 33 32 32
8 9 11 14 15 16 18 20 24 24 22 30 32 31 32 32 30 32 31 32 34 34 33 34 34 34 36 38 38 39 38 38 38 37 36 36 36 36 34 35 35 35 33 33 33
9 9 10 14 16 16 15 25 21 20 25 30 29 30 31 31 31 33 32 33 33 33 35 34 33 36 38 38 38 38 38 38 38 36 36 37 36 36 36 34 35 35 34 33 34
10 10 9 15 16 16 17 21 18 19 24 30 30 30 30 30 30 33 33 34 33 34 34 34 35 37 37 37 37 37 37 38 38 36 36 37 36 36 37 36 35 35 35 35 34
9 10 9 12 17 16 21 18 18 18 26 31 30 30 29 31 30 33 34 34 34 34 34 34 37 35 35 35 37 37 38 38 38 36 35 36 36 38 38 36 35 35 35 35 35
8 10 8 8 12 18 18 17 17 20 28 31 31 31 31 31 32 32 34 34 33 34 34 34 34 34 34 35 37 37 39 38 38 37 37 36 35 38 38 37 37 36 36 36 36
8 9 9 12 12 14 15 16 19 26 28 31 31 30 30 31 32 31 32 34 35 34 34 35 35 35 35 36 37 38 37 37 38 37 35 37 36 37 38 37 38 38 37 36 36
8 9 11 9 18 14 15 22 26 27 30 31 31 32 33 32 32 31 31 31 32 31 32 33 34 35 36 35 37 36 36 34 34 35 35 38 36 37 39 40 39 40 39 38 37
8 11 11 11 12 12 15 23 25 29 30 31 31 32 31 33 33 32 32 32 33 33 34 32 32 34 35 36 36 36 37 35 33 34 35 37 35 37 39 40 40 41 40 40 38
8 13 14 14 11 12 20 24 27 28 30 31 31 30 32 32 32 32 32 33 34 34 33 33 33 36 36 36 37 36 36 38 37 37 36 37 37 38 39 39 39 40 40 39 39
8 12 15 13 12 14 21 23 27 29 30 31 30 32 31 33 31 32 32 33 34 34 35 34 32 35 35 36 36 37 37 36 37 34 34 36 37 37 38 38 39 40 40 41 40
11 15 14 12 13 18 21 24 26 28 28 29 30 31 31 32 32 33 33 34 34 34 35 35 33 34 35 34 35 35 35 37 37 37 35 35 36 39 38 39 40 41 41 42 41
12 16 13 13 18 21 22 24 22 26 28 28 29 30 31 31 31 31 31 33 33 34 33 34 34 32 33 36 36 37 35 36 35 34 36 36 37 41 40 40 40 41 41 42 41
13 15 16 14 18 21 22 22 23 24 26 27 27 28 30 29 29 30 32 33 32 33 33 34 33 31 32 35 36 35 36 37 37 37 36 35 36 40 39 39 39 40 40 40 38
13 15 18 16 18 17 19 20 21 24 24 26 27 28 28 28 30 29 30 31 32 32 28 31 33 32 33 33 34 33 34 36 37 36 36 36 37 38 39 39 39 40 40 40 38
13 15 13 16 18 16 17 18 19 21 24 25 25 26 28 27 28 28 30 31 31 27 31 32 31 33 33 35 35 35 34 34 35 35 35 36 36 37 38 39 39 40 41 40 38
10 12 12 12 14 15 16 17 18 20 22 22 24 26 27 27 28 28 29 29 30 31 31 31 30 31 32 34 34 34 35 35 35 35 35 36 36 39 39 39 39 39 40 40 38
10 10 11 12 13 14 16 18 18 18 19 21 22 21 23 26 26 27 29 29 30 30 30 30 30 30 30 33 33 33 34 35 35 36 35 35 36 38 37 38 38 39 39 39 39

GFSSW_925_temp_027.txt.gz
Temp
15 17 17 17 17 17 18 19 20 21 21 23 23 24 24 25 26 22 31 33 32 31 28 31 33 34 35 37 38 39 35 37 39 38 37 37 37 37 37 35 35 36 34 33 31
12 15 16 16 16 17 18 18 19 20 22 22 23 23 24 24 23 30 33 32 32 30 30 34 35 36 36 37 39 38 31 39 40 40 38 38 37 37 36 35 34 35 34 32 31
10 14 15 15 16 17 17 18 19 20 21 22 23 23 24 24 29 35 31 31 30 30 33 35 36 37 37 39 39 39 32 39 40 40 39 38 38 37 36 35 35 34 33 32 31
10 13 14 14 15 16 17 18 19 20 21 22 22 23 23 22 32 32 30 30 30 29 33 35 37 36 37 38 40 38 39 40 40 40 40 38 38 37 37 37 37 35 34 33 32
10 13 14 14 15 16 17 17 19 21 21 22 23 22 20 29 32 31 31 29 28 30 32 36 36 38 37 39 40 39 40 40 40 40 40 39 38 37 37 38 37 36 34 33 33
12 13 13 14 15 16 18 18 19 21 22 23 23 20 22 29 33 32 32 29 31 31 34 36 37 39 39 39 40 40 40 40 40 40 40 39 38 37 37 37 36 35 34 34 34
9 11 12 14 15 16 17 20 21 21 22 22 22 17 27 31 34 33 32 33 34 34 36 36 37 38 39 39 41 41 39 39 39 40 39 39 37 36 37 37 36 35 34 34 34
10 12 12 13 16 17 18 20 21 21 20 20 20 19 29 33 33 33 33 33 34 34 35 37 37 39 39 40 40 39 39 39 40 40 39 38 37 37 37 37 36 35 35 34 34
9 12 12 14 16 17 19 20 20 19 19 19 18 25 31 31 32 33 33 34 34 34 35 36 38 38 38 38 39 39 38 39 38 40 39 38 28 38 38 37 36 36 35 35 34
9 10 12 14 16 17 20 21 17 17 17 19 23 28 31 34 35 34 34 34 36 36 35 36 37 36 37 38 37 38 38 40 38 39 38 38 38 38 38 37 37 36 36 35 35
9 9 12 14 16 17 18 24 26 24 24 31 33 33 35 36 34 34 34 35 36 36 35 36 35 35 37 39 39 40 40 39 40 40 39 38 38 38 38 38 37 37 36 36 35
9 9 10 14 17 18 17 27 25 24 26 31 32 34 35 36 34 35 34 34 35 34 36 36 35 38 39 39 39 40 40 40 41 40 39 39 39 39 39 38 38 38 37 36 36
8 9 8 15 17 18 23 25 23 24 27 31 34 34 35 35 34 36 36 35 35 35 36 36 37 38 38 39 39 39 40 40 40 40 40 39 38 39 40 39 38 38 39 38 37
8 8 8 11 18 20 25 23 23 23 27 33 33 34 35 35 33 36 37 36 36 35 37 37 39 38 38 38 39 38 40 40 41 37 37 39 37 39 39 39 39 38 38 39 38
8 8 8 11 12 20 23 22 22 25 29 35 34 35 35 34 37 35 36 36 35 36 37 36 38 38 37 38 39 39 41 40 40 39 38 39 38 39 40 39 39 39 39 39 39
8 8 9 14 15 18 20 21 24 26 29 34 34 33 33 34 36 36 35 37 37 36 37 37 39 39 39 39 39 40 40 40 40 40 37 39 37 39 37 40 40 41 40 40 40
8 9 9 10 18 20 20 24 26 28 34 34 34 35 34 34 35 34 34 34 34 33 34 36 37 38 39 37 39 38 38 37 37 37 37 38 38 35 41 41 41 41 41 41 40
8 11 12 15 17 17 18 24 25 31 32 36 36 35 34 37 36 35 34 34 35 36 36 35 34 37 38 37 37 38 38 37 34 36 38 40 38 40 42 42 42 42 43 42 41
8 15 17 19 18 17 21 24 27 29 34 34 35 34 35 36 36 36 35 35 36 36 35 36 35 38 38 38 38 38 38 40 38 39 38 40 40 41 41 41 42 41 42 42 42
9 14 19 19 17 18 21 22 28 31 33 33 33 35 34 35 35 35 35 36 36 37 37 36 35 38 38 38 38 38 40 38 39 36 36 39 39 39 40 40 41 41 41 42 42
10 19 19 18 17 19 20 23 25 28 30 31 31 33 34 35 36 35 35 37 37 37 37 37 36 36 38 37 36 37 39 39 39 39 37 37 39 42 40 40 40 41 42 43 43
15 18 19 18 19 21 22 23 24 27 30 30 30 31 32 34 35 36 35 36 38 37 36 37 36 35 36 38 38 38 37 38 39 36 38 39 39 43 42 42 41 42 43 43 43
15 18 20 19 18 21 23 24 26 26 28 28 29 30 31 32 32 35 35 37 36 35 35 37 35 34 35 37 38 36 37 39 39 39 37 38 38 42 42 42 42 41 42 42 42
13 17 21 20 20 20 21 22 23 26 26 27 27 29 30 30 32 32 33 35 35 34 30 33 35 34 35 35 37 36 36 38 39 38 38 38 38 40 41 40 41 41 41 42 42
13 16 16 16 19 16 17 19 19 18 21 25 26 27 28 29 30 30 32 34 35 32 33 34 33 35 35 36 37 37 37 37 37 38 37 38 38 39 40 41 41 41 41 41 41
8 13 15 15 16 16 16 18 19 20 20 19 22 25 28 28 29 29 31 32 32 34 32 33 32 34 34 36 36 36 37 37 37 37 38 38 38 41 41 41 41 41 41 41 41
10 10 11 13 15 15 16 17 19 19 18 19 18 16 20 24 26 27 29 33 33 33 32 32 33 32 32 34 35 34 36 37 37 37 37 36 38 39 39 40 40 40 40 40 40

GFSSW_925_temp_030.txt.gz
Temp
12 14 15 15 16 17 18 19 19 20 21 22 23 23 24 24 25 24 28 32 32 32 30 31 31 34 36 37 38 37 29 36 37 38 37 38 37 38 37 37 33 35 34 32 32
14 15 15 15 15 16 17 18 19 20 21 22 22 23 23 24 22 28 31 31 32 32 31 34 34 36 36 37 37 23 24 32 35 39 38 39 38 37 36 36 35 34 35 33 33
14 14 14 15 15 16 17 18 18 20 20 21 22 23 23 22 27 33 31 32 32 32 33 35 36 37 37 38 39 25 27 32 33 40 40 39 38 38 36 35 36 34 33 33 33
11 13 14 14 15 17 17 17 18 19 21 21 23 23 23 20 30 32 32 31 31 30 32 35 37 37 37 37 38 27 24 29 40 41 40 39 39 38 37 37 37 35 34 33 34
11 13 13 13 15 17 18 18 19 20 21 21 22 22 20 28 31 32 32 32 30 29 33 35 36 37 37 38 40 32 31 35 41 40 41 40 38 38 38 38 37 35 34 33 33
10 12 13 14 15 16 18 18 19 20 22 21 21 17 20 27 33 33 31 30 33 32 34 36 37 38 38 39 39 41 39 40 41 41 41 39 38 38 38 38 37 35 33 34 34
9 11 13 14 14 16 17 19 20 21 21 21 20 14 25 30 34 33 33 33 32 33 35 35 37 38 38 38 40 41 40 41 40 41 40 40 37 37 38 38 36 35 34 34 34
9 10 12 14 15 16 17 20 21 20 21 20 18 18 26 32 33 33 35 34 35 35 35 36 37 37 38 39 39 39 40 39 40 40 40 39 32 37 38 38 36 35 35 34 34
9 9 11 14 15 17 18 21 21 20 19 19 17 22 30 34 33 34 35 35 35 36 36 36 38 37 37 37 37 39 38 39 38 41 40 38 28 33 35 38 36 36 35 35 35
8 9 10 13 15 17 18 23 21 18 19 19 22 27 30 34 35 35 35 35 36 36 36 36 36 36 36 37 35 37 38 39 38 39 40 32 25 30 33 38 37 36 36 35 35
8 8 9 13 15 17 16 18 27 24 23 29 31 31 36 35 37 36 36 36 36 36 34 36 35 35 36 37 38 39 39 39 39 32 39 36 31 27 31 37 37 37 36 36 36
8 8 9 13 16 18 17 25 28 26 26 30 31 32 34 37 36 36 36 35 35 34 35 35 34 36 38 38 38 38 39 40 39 34 37 39 33 31 32 38 38 37 37 36 36
9 9 9 13 17 20 23 25 26 26 26 29 32 32 34 36 36 37 37 36 35 34 35 35 36 38 38 37 37 38 38 39 39 39 40 40 38 39 39 39 39 39 38 37 37
8 9 9 11 19 17 23 25 25 26 25 31 35 34 35 35 34 37 38 36 36 35 36 36 38 37 37 37 38 37 40 40 40 39 37 40 37 38 40 38 38 39 39 39 38
9 9 9 10 11 17 24 23 24 26 27 37 37 38 37 35 37 36 37 37 35 36 36 36 37 37 37 38 39 38 40 40 40 39 38 36 36 38 39 38 39 39 39 39 39
8 9 9 12 15 17 20 23 25 26 27 36 36 35 35 36 36 38 36 37 37 36 37 37 39 39 39 39 39 40 40 40 40 40 37 37 35 35 38 38 38 40 40 40 40
8 9 9 9 15 19 20 24 25 26 34 35 36 36 35 35 35 37 35 35 35 33 34 36 37 39 40 39 39 39 38 37 36 38 37 39 36 36 39 39 38 37 39 40 40
9 9 13 13 16 17 20 22 23 30 30 37 37 36 35 36 35 36 35 34 35 35 35 34 35 37 39 38 38 38 38 37 34 36 38 40 38 37 39 38 35 35 36 41 41
9 13 15 19 20 19 21 21 25 28 33 34 36 36 36 36 37 36 36 35 36 36 35 36 35 39 39 39 39 38 37 39 38 39 38 40 40 42 42 39 37 38 40 39 39
8 12 17 19 21 21 20 20 25 28 31 32 32 34 35 36 36 37 36 37 36 37 37 37 35 38 39 39 39 38 39 37 37 35 35 39 39 39 39 37 39 38 41 40 40
10 17 20 21 21 20 19 21 23 25 26 26 27 29 32 35 36 36 37 38 37 37 38 37 36 37 39 37 37 37 37 38 38 38 37 36 39 42 40 39 40 40 41 42 43
14 16 21 21 20 21 20 22 21 24 26 27 28 29 29 31 34 36 36 37 39 38 37 37 36 35 37 39 39 38 37 37 36 35 38 38 39 43 41 41 41 41 42 42 42
13 16 18 20 19 20 21 22 24 24 25 26 27 29 30 30 30 32 35 38 39 38 37 38 35 34 35 38 39 38 38 38 38 38 36 37 38 41 41 38 39 41 41 41 40
11 15 19 22 21 21 18 19 21 24 25 26 26 27 28 29 31 31 32 35 37 38 31 36 36 34 35 35 37 37 38 38 38 36 37 38 38 39 40 38 39 40 41 42 40
11 14 17 15 17 17 14 14 15 19 22 23 23 24 21 23 28 29 31 32 35 33 35 36 33 34 36 36 37 37 37 37 37 37 36 38 39 39 40 39 40 39 41 41 41
8 12 14 14 16 16 16 16 16 17 15 17 19 20 19 20 20 17 21 28 32 35 35 35 32 33 33 36 36 36 38 38 38 37 37 38 38 41 41 41 39 39 38 39 40
9 8 9 11 14 16 17 17 14 15 15 18 15 14 16 18 18 19 21 23 27 32 33 33 33 32 32 34 35 34 37 37 38 38 37 36 38 40 39 39 39 39 38 39 39

GFSSW_925_temp_033.txt.gz
Temp
13 14 14 14 15 16 16 17 18 19 20 21 22 22 23 23 24 23 22 28 30 31 30 29 27 29 30 30 23 23 22 24 31 34 34 35 34 35 34 31 30 31 28 28 27
13 14 14 13 14 16 17 17 18 18 20 21 22 22 23 22 20 22 30 31 31 30 29 31 31 31 30 32 24 23 22 26 34 35 34 34 34 33 32 30 29 31 30 28 28
12 13 14 14 14 16 17 17 18 18 19 21 22 22 22 22 18 28 32 32 31 30 30 32 33 33 31 33 25 24 26 31 32 34 35 35 35 35 32 31 31 29 30 29 29
10 12 14 14 14 15 16 17 18 18 19 20 22 21 22 20 26 32 33 33 32 31 30 32 32 32 32 33 29 28 28 32 31 34 34 35 35 35 34 33 33 31 31 30 29
10 11 12 14 15 16 16 17 18 19 20 20 20 20 20 21 25 31 32 32 31 30 30 31 31 32 32 34 30 30 30 34 34 33 32 37 35 35 35 34 33 33 32 31 30
10 10 12 13 14 15 16 18 18 19 20 19 17 16 16 22 30 31 31 31 30 29 30 31 32 33 34 34 32 32 32 37 37 32 36 36 35 35 35 34 33 32 31 30 30
10 10 11 12 14 15 16 18 19 20 19 19 17 13 19 24 31 32 31 32 32 31 30 32 33 33 34 33 36 37 32 36 37 35 36 36 34 34 34 34 32 31 31 31 30
9 10 11 14 15 16 16 18 20 20 21 19 15 15 18 28 31 31 31 32 32 33 33 34 34 33 33 33 35 34 34 34 37 36 37 34 31 35 34 33 31 31 32 31 30
9 9 10 13 15 16 17 19 22 21 21 17 15 16 22 30 28 31 33 32 34 34 33 34 34 32 32 31 30 32 31 33 35 39 38 33 30 34 34 34 32 32 32 32 31
9 10 10 12 15 16 17 21 22 18 18 16 19 20 24 29 33 33 33 34 33 33 33 33 31 31 31 30 29 30 32 33 35 35 34 31 30 34 33 32 32 32 32 31 31
8 9 10 12 15 17 15 18 22 20 21 24 24 26 30 33 34 34 35 34 33 32 30 31 29 29 30 32 33 34 34 34 36 35 31 31 30 32 32 31 31 32 32 32 32
8 8 9 12 15 18 16 16 23 25 23 26 27 28 29 29 30 35 35 32 31 30 31 30 30 31 33 34 34 34 34 34 34 35 34 31 31 30 32 32 31 33 32 32 32
9 9 9 10 16 18 16 19 24 25 22 25 27 28 29 30 29 33 34 33 32 31 31 30 32 34 34 33 34 34 33 34 33 35 33 34 31 29 33 34 33 33 33 33 32
9 9 9 9 17 14 16 21 23 24 20 26 29 30 30 30 31 33 35 33 32 31 32 31 33 34 33 33 34 32 35 36 34 33 30 34 30 29 31 32 33 33 34 34 33
9 9 9 9 8 12 18 19 21 23 21 32 32 34 31 30 32 33 35 34 32 32 32 32 33 33 33 34 35 34 36 36 36 32 33 34 30 30 30 31 32 35 35 34 34
9 9 9 9 10 14 17 18 21 21 22 30 35 32 31 31 32 35 33 34 34 33 33 33 35 34 34 36 36 36 35 35 35 34 28 34 30 30 31 33 34 35 36 35 35
10 10 10 8 10 17 17 18 20 21 30 33 33 34 32 31 32 32 32 31 31 30 30 32 34 35 36 34 35 35 33 31 31 31 30 31 32 32 34 34 36 36 36 36 35
9 11 14 11 13 15 15 18 18 26 26 31 32 34 33 33 32 33 32 31 32 31 30 30 30 34 36 35 33 34 33 32 28 30 32 33 31 32 36 36 36 37 36 35 35
9 9 11 15 15 15 16 16 21 24 27 26 26 29 32 34 34 33 32 32 32 32 30 30 31 35 36 36 36 33 33 34 31 32 30 33 34 34 37 33 32 34 36 34 35
6 9 12 18 19 17 16 16 20 23 23 22 21 26 26 26 28 32 32 33 33 34 33 32 29 34 35 36 35 35 34 32 33 30 31 33 32 32 34 31 33 34 33 34 32
8 12 16 18 20 18 16 18 19 22 22 22 23 23 24 25 26 27 30 34 35 34 34 33 31 32 34 34 34 32 33 31 32 33 30 30 33 35 33 33 32 34 34 36 36
10 11 16 16 16 19 18 19 18 21 22 22 23 22 22 24 24 26 27 29 35 36 33 33 32 30 31 34 36 35 33 31 30 29 29 32 33 35 37 35 35 34 35 36 36
9 11 13 15 14 16 19 20 21 21 21 20 21 23 24 23 23 25 27 30 32 32 34 33 32 29 30 32 34 34 35 33 33 29 30 28 32 36 36 34 34 34 34 36 35
8 10 14 15 16 16 14 15 16 17 18 19 17 20 21 23 24 23 24 29 31 31 29 30 33 32 30 31 32 32 34 34 33 32 31 32 32 32 34 34 34 34 37 36 33
8 10 13 11 12 12 12 11 13 14 17 16 15 16 16 16 18 20 21 19 22 24 27 28 28 32 33 33 34 34 34 35 34 33 31 32 32 32 34 33 33 32 34 35 34
7 9 10 9 12 12 13 15 14 15 15 14 14 14 16 13 15 14 16 16 17 20 19 21 25 29 30 33 34 34 35 35 35 35 34 33 32 33 33 34 33 34 37 34 35
8 9 7 9 10 12 13 14 14 14 14 15 15 12 13 16 15 15 17 17 17 16 18 20 23 26 28 31 31 29 33 34 34 35 34 33 33 33 33 34 34 34 32 38 36

GFSSW_925_temp_036.txt.gz
Temp
11 13 14 14 14 15 16 17 18 18 18 18 19 21 22 22 23 23 20 28 29 28 28 25 25 26 26 22 23 23 23 24 27 32 32 32 30 30 30 28 29 29 26 25 25
9 11 13 14 14 14 16 16 17 18 18 19 19 20 21 20 18 18 31 30 30 29 26 24 25 27 25 23 23 23 23 26 28 31 32 33 30 30 29 28 28 27 27 26 25
9 10 12 13 14 14 15 16 17 17 18 19 20 19 21 18 16 24 32 31 29 28 28 28 28 28 27 25 24 25 27 29 32 33 33 32 31 31 28 28 27 26 26 26 26
9 10 11 13 14 15 16 16 16 17 18 18 19 19 20 18 25 31 32 33 31 28 28 28 29 28 28 28 26 25 28 31 31 31 33 33 32 30 30 30 29 28 27 27 26
10 10 11 13 14 15 16 16 17 17 17 18 17 17 17 18 21 31 31 32 32 28 27 28 28 28 29 29 28 28 30 32 33 33 33 34 33 31 31 31 30 28 27 27 26
10 10 11 12 14 15 16 16 17 18 18 18 16 12 15 20 28 30 30 29 31 28 28 28 29 29 29 30 30 30 30 33 33 32 34 34 33 32 31 31 30 28 27 27 27
10 10 10 12 14 15 16 17 18 19 20 19 14 12 14 22 29 29 29 30 30 30 27 29 30 30 30 31 32 32 31 32 34 34 32 34 31 30 31 31 29 28 28 28 28
9 9 10 11 14 14 16 18 20 20 20 19 13 13 14 26 29 27 28 29 29 30 31 32 31 29 30 30 32 32 30 29 33 33 34 33 29 31 31 31 29 28 29 29 28
9 9 10 11 13 13 15 19 21 18 18 17 14 13 17 26 24 28 28 29 30 30 30 31 30 29 30 30 27 28 28 29 31 35 34 32 29 31 31 31 30 30 30 29 27
10 10 10 11 13 13 15 21 20 17 16 14 16 17 20 27 29 30 31 30 29 29 29 30 28 27 26 25 26 27 29 31 33 34 33 32 30 31 31 30 30 30 30 30 29
9 9 9 11 13 14 14 18 18 19 18 20 20 21 25 28 30 31 32 30 29 29 27 28 26 27 27 27 29 29 29 29 32 33 33 31 30 31 31 30 29 29 29 29 30
9 9 9 10 14 14 15 14 19 20 17 22 24 24 25 26 26 28 32 29 28 27 27 27 27 27 29 29 30 30 30 30 33 34 32 30 31 33 30 30 30 30 29 30 30
10 10 10 11 15 15 12 16 18 18 18 21 24 25 25 25 24 26 28 28 28 27 27 27 28 30 30 30 30 30 30 30 32 33 32 31 30 30 31 30 30 30 30 30 30
9 10 10 9 14 12 13 18 18 17 17 21 23 25 25 26 25 29 30 30 29 28 27 27 29 30 30 30 30 28 32 32 32 31 31 32 30 28 31 29 29 30 30 31 30
10 10 10 9 8 8 17 16 18 18 21 28 28 29 25 27 29 29 31 30 29 29 28 28 30 30 30 31 31 30 32 31 32 30 30 31 27 28 28 30 29 30 31 31 31
9 10 10 10 7 15 15 15 17 19 20 25 30 28 26 27 30 32 30 30 31 30 29 30 31 31 31 32 32 32 31 31 31 27 28 30 30 27 28 29 31 32 31 32 32
9 10 11 9 9 14 15 14 17 17 24 28 24 24 27 26 29 30 30 29 29 28 28 30 30 31 32 30 31 31 28 26 27 27 28 28 28 30 32 31 31 33 32 33 33
9 10 13 12 12 12 14 14 16 22 23 23 22 25 27 28 28 29 28 29 29 28 27 27 27 30 31 31 30 28 30 28 26 26 27 28 29 30 32 34 33 34 34 34 33
8 10 10 13 14 11 10 12 15 19 20 20 20 23 23 27 23 27 28 28 30 28 27 25 27 31 33 32 32 29 29 29 26 27 26 28 29 30 32 32 33 34 35 34 34
6 7 9 15 14 13 9 12 15 19 19 20 19 21 20 21 22 22 23 29 30 30 28 28 26 29 32 32 32 32 28 30 24 28 28 28 29 29 31 32 32 33 34 35 34
7 6 13 13 14 10 11 12 17 19 20 18 18 17 19 19 21 20 21 26 28 31 30 30 27 29 30 30 30 30 30 28 28 27 29 28 31 29 31 30 31 33 35 35 33
7 6 12 12 8 10 13 14 16 17 19 18 19 19 19 18 19 20 21 23 26 25 25 28 28 28 29 29 31 32 31 29 30 26 25 31 31 34 32 31 31 33 35 35 33
4 5 11 12 8 9 12 14 15 16 16 16 17 17 17 16 17 21 22 25 19 21 23 24 27 27 26 28 30 29 30 32 24 25 30 26 28 31 32 32 31 31 32 31 31
4 5 6 8 11 9 10 11 12 15 16 15 14 15 14 14 15 15 17 19 18 19 20 20 22 26 29 29 30 28 31 31 31 29 29 30 30 32 32 30 29 31 31 31 30
5 6 7 7 8 9 10 10 11 11 14 13 13 14 13 12 13 15 15 15 17 19 17 16 18 24 25 30 31 30 31 32 30 32 31 30 28 29 30 30 30 29 31 33 34
6 6 5 5 6 7 10 11 8 9 12 13 13 14 13 11 12 12 14 13 14 15 15 14 16 19 24 28 31 32 32 32 32 32 32 29 29 29 30 28 30 30 31 32 31
7 7 6 7 7 7 8 10 11 11 12 13 13 12 12 13 14 14 13 14 14 14 14 14 15 17 20 28 30 30 32 31 32 31 31 29 29 28 30 30 30 29 30 30 33